Regional Weather Roundup
Issued by NWS

Home | Current Version | Previous Version | Text Only | Print | Product List | Glossary Off
Versions: 1 2 3 4 5 6 7 8 9 10 11 12 13 14 15 16 17 18 19 20 21 22 23 24 25 26 27 28 29 30 31 32 33 34 35 36 37 38 39 40 41 42 43 44 45 46 47 48 49 50

000
ASUS43 KDMX 221207
RWRIA

WEATHER ROUNDUP FOR IOWA
NATIONAL WEATHER SERVICE DES MOINES IA
700 AM CDT MON SEP 22 2014

NOTE: "FAIR" INDICATES FEW OR NO CLOUDS BELOW 12,000 FEET WITH NO
SIGNIFICANT WEATHER AND/OR OBSTRUCTIONS TO VISIBILITY.

* - THESE STATIONS ARE NOT NWS STATIONS...THUS NOT UNDER NWS
QUALITY CONTROL.  THEY ALSO DO NOT REPORT WEATHER SUCH
AS PRECIPITATION OR FOG.

IAZ001>003-012>014-020>022-031>034-043>046-221300-
   NORTHWEST IOWA

CITY           SKY/WX    TMP DP  RH WIND       PRES   REMARKS
CARROLL *      CLEAR     41  41 100 CALM      30.31S
CHEROKEE *       N/A     41  41 100 CALM      30.31R FOG
DENISON *      CLEAR     43  43 100 CALM      30.30S
LE MARS *        N/A     41  41 100 CALM      30.31R
ORANGE CITY *  CLEAR     48  45  87 S3        30.30R
SHELDON *      CLEAR     41  41 100 E3        30.29R
SIOUX CITY     CLEAR     44  42  93 SE3       30.31R
6HR MIN TEMP:  44; 6HR MAX TEMP:  49;

SPENCER        FOG       38  37  97 CALM      30.30R VSB 1/2
6HR MIN TEMP:  38; 6HR MAX TEMP:  45;

STORM LAKE *   CLEAR     46  46 100 SW7       30.30R
$$

IAZ055>058-069>071-079>083-090>094-221300-
   SOUTHWEST IOWA

CITY           SKY/WX    TMP DP  RH WIND       PRES   REMARKS
ATLANTIC *     MOCLDY    43  43 100 N3        30.31S
AUDUBON *      CLEAR     43  37  81 CALM      30.33R
CLARINDA *     CLEAR     45  45 100 CALM      30.33S
COUNCIL BLFS * CLEAR     50  50 100 CALM      30.30S
CRESTON *      CLEAR     48  46  93 NW6       30.32R
HARLAN  *      CLEAR     43  43 100 CALM      30.35R
LAMONI         CLEAR     49  46  90 N3        30.30S
6HR MIN TEMP:  46; 6HR MAX TEMP:  53;

RED OAK *      CLEAR     45  45 100 CALM      30.32S
SHENANDOAH *   FOG       43  43 100 CALM      30.33R VSB 0
$$

IAZ047>049-059>061-072>074-084-221300-
   CENTRAL IOWA

CITY           SKY/WX    TMP DP  RH WIND       PRES   REMARKS
AMES           CLEAR     43  43 100 W5        30.30R
6HR MIN TEMP:  42; 6HR MAX TEMP:  50;

ANKENY *       CLEAR     45  45 100 CALM      30.31R
CHARITON *     CLEAR     46  46 100 W3        30.30S
DES MOINES     CLEAR     49  46  90 NW3       30.31R
6HR MIN TEMP:  49; 6HR MAX TEMP:  56;

GRINNELL*      CLEAR     42  41  95 CALM      30.30R
KNOXVILLE *    CLEAR     45  43  93 W5        30.29R FOG
MARSHALLTOWN   FOG       42  42 100 CALM      30.29R VSB 3/4
6HR MIN TEMP:  41; 6HR MAX TEMP:  48;

PELLA *        CLEAR     44  43  98 CALM      30.31R
PERRY *          N/A     44  44  99 W5        30.31S
$$

IAZ004>006-015-016-023>025-035-036-221300-
   NORTH CENTRAL IOWA

CITY           SKY/WX    TMP DP  RH WIND       PRES   REMARKS
ALGONA *       CLEAR     43  43 100 W5        30.30S
CLARION *        N/A     41  41 100 CALM      30.30R
ESTHERVILLE    CLEAR     42  41  96 SW5       30.29S
6HR MIN TEMP:  39; 6HR MAX TEMP:  45;

FORT DODGE *   CLEAR     45  41  87 CALM      30.31S
MASON CITY     CLEAR     42  42 100 CALM      30.29R FOG
6HR MIN TEMP:  41; 6HR MAX TEMP:  48;

FOREST CITY *    N/A     41  41 100 CALM      30.29R FOG
IOWA FALLS *     N/A     43  41  93 W3        30.31R
$$

IAZ007>011-017>019-026>030-037>042-050>054-066-221300-
   NORTHEAST IOWA

CITY           SKY/WX    TMP DP  RH WIND       PRES   REMARKS
CEDAR RAPIDS   CLEAR     42  41  96 CALM      30.28R
6HR MIN TEMP:  41; 6HR MAX TEMP:  48;

CHARLES CITY * CLEAR     43  41  93 CALM      30.29R FOG
CLINTON *      CLEAR     43  39  87 N6        30.31R
DECORAH *      CLEAR     43  41  93 CALM      30.27R
DUBUQUE        CLEAR     40  38  93 CALM      30.28R
6HR MIN TEMP:  38; 6HR MAX TEMP:  50;

MONTICELLO *   FOG       37  37 100 CALM      30.29R VSB 0
OELWEIN *      CLEAR     41  41 100 W3        30.29R FOG
WATERLOO       FOG       39  39 100 CALM      30.29R VSB 3/4
6HR MIN TEMP:  39; 6HR MAX TEMP:  48;

$$

IAZ064-065-067-068-078-221300-
   EAST CENTRAL IOWA

CITY           SKY/WX    TMP DP  RH WIND       PRES   REMARKS
DAVENPORT      CLEAR     38  36  92 N5        30.28R WCI  34
6HR MIN TEMP:  37; 6HR MAX TEMP:  47;

IOWA CITY        N/A     43  42  97 CALM      30.30R
6HR MIN TEMP:  42; 6HR MAX TEMP:  49;

MT. PLEASANT * CLEAR     45  44  95 CALM      30.29R
MUSCATINE *    CLEAR     45  43  93 CALM      30.29R
QUAD CITIES    CLEAR     42  40  92 CALM      30.28R
6HR MIN TEMP:  41; 6HR MAX TEMP:  54;

$$

IAZ062-063-075>077-085>089-095>099-221300-
   SOUTHEAST IOWA

CITY           SKY/WX    TMP DP  RH WIND       PRES   REMARKS
BURLINGTON     CLEAR     44  43  96 N3        30.27R
6HR MIN TEMP:  44; 6HR MAX TEMP:  52; 6HR PCP: TRACE;

FAIRFIELD *    CLEAR     43  43 100 CALM      30.29R
FORT MADISON * CLEAR     46  45  93 CALM      30.29R
KEOKUK *       CLEAR     46  45  93 N6        30.27R
OSKALOOSA *      N/A     43  43  98 N3        30.30R
CENTERVILLE *  CLEAR     45  45 100 W3        30.31R
OTTUMWA        FOG       43  42  97 NW5       30.29R VSB 3/4
6HR MIN TEMP:  42; 6HR MAX TEMP:  51;

WASHINGTON *     N/A     45  45 100 CALM      30.29R
$$

ABBREVIATIONS USED IN REMARKS
   TC - TEMPERATURES IN CELSIUS
  WCI - WIND CHILL INDEX
   HX - HEAT INDEX
  VSB - VISIBILITY
$$




USA.gov is the U.S. government's official web portal to all federal, state and local government web resources and services.